Weather in Crieff

United Kingdom     56°12′45″N   3°25′25″W
temp.,
°C
wind,
m/s
gust,
m/s
humid.,
%
clouds,
%
prec.,
mm/h
press.,
hPa
HPBL,
m
18 april, sun
sun1801:00+4s1182100 0.0 102610
04:00+3s2177100 0.0 102511
07:00+5ssw2273100 0.0 102480
10:00+8sw3665100 0.0 1025797
13:00+6wsw2473100 0.0 1025231
16:00+7wsw2475100 0.0 1024335
19:00+7s1180100 0.0 102414
22:00+6se1180100 0.0 102510
19 april, mon
mon1901:00+6se0080100 0.0 102410
04:00+5s118675 0.0 102310
07:00+5ssw118899 0.0 102210
10:00+10ssw246895 0.0 1022616
13:00+12sw575999 0.0 10201537
16:00+13sw4658100 0.0 10191205
19:00+11sw4868100 0.0 1019508
22:00+7sw2283100 0.0 101937
20 april, tue
tue2001:00+6wsw2283100 0.0 101938
04:00+6w2480100 0.0 1019154
07:00+6sw2490100 0.6 1020201
10:00+6wsw2390100 0.6 1021284
13:00+8wsw228598 0.7 1021437
16:00+9wsw237890 0.0 1021418
19:00+10ssw0176100 0.1 1021199
22:00+5ne239463 0.1 1023170
21 april, wed
wed2101:00+6e129283 0.1 1024139
04:00+3n118916 0.1 102512
07:00+2nne118144 0.1 102627
10:00+7e116544 0.0 1026763
13:00+9sse22519 0.0 10251414
16:00+10sse334915 0.0 10251432
19:00+9sse34606 0.0 1024250
22:00+4ese11705 0.0 102611
22 april, thu
thu2201:00+2nne118017 0.0 102611
04:00+1nw11845 0.0 102610
07:00+2wsw228366 0.0 102639
10:00+9wsw236882 0.0 1025482
13:00+12wsw335294 0.0 10251094
16:00+14wsw234658 0.0 10241481
19:00+12s34646 0.0 1024147
22:00+5ene22893 0.0 102629